Temp_Advection
nan nan nan nan nan nan nan nan nan nan nan nan nan nan nan nan nan nan nan nan nan nan nan nan nan nan nan
nan -0 -1 -0 1 1 1 1 0 0 1 1 0 0 0 1 1 0 2 3 1 1 2 1 1 2 nan
nan -1 -1 -1 -0 -0 0 1 1 1 1 1 1 1 0 0 1 2 1 2 3 1 1 1 1 1 nan
nan -2 -1 -0 -0 -1 -1 0 1 1 1 0 0 0 1 1 1 0 -0 1 5 4 1 1 1 1 nan
nan -1 -1 -1 -1 -0 0 -1 0 -0 0 -0 -0 0 1 1 1 0 0 1 3 3 2 2 1 1 nan
nan -1 -1 -0 -1 -1 -0 -1 -1 -1 -0 0 0 -0 -0 0 1 0 0 2 2 2 2 2 2 1 nan
nan 0 -0 -1 -0 -1 -1 -0 -1 -1 -1 -1 -1 -0 0 1 1 0 0 1 2 2 2 2 1 1 nan
nan -1 -0 0 0 0 0 -1 -1 -1 1 -1 -3 -1 0 1 1 0 1 1 2 2 3 2 1 1 nan
nan 0 0 1 0 -1 -1 0 -1 -1 1 -0 -1 -1 -1 -1 -0 0 0 1 2 3 2 1 2 1 nan
nan 1 0 0 1 2 1 -0 -1 -1 -1 -1 -1 -0 -1 -1 -1 -0 -0 1 3 3 2 1 1 1 nan
nan -1 0 0 0 1 1 0 -0 -1 -1 -1 -0 -0 -0 -1 -1 0 -0 0 2 3 2 1 1 1 nan
nan -1 -2 -1 -1 -1 0 0 -1 -1 -0 0 0 -1 -0 -0 -1 -0 1 1 1 2 1 1 1 0 nan
nan -2 -2 -1 -1 -1 -1 -1 -1 -1 -0 0 0 1 1 0 -0 -0 -0 -0 1 1 1 0 1 0 nan
nan -1 -1 -1 -1 -1 -1 -1 -1 -1 -1 -0 0 0 1 1 0 0 0 -0 -0 1 1 1 1 1 nan
nan 1 -0 -1 -1 -1 -1 -1 -1 -1 -1 -0 0 0 0 1 0 0 0 0 0 0 1 1 1 1 nan
nan 1 1 -0 -1 -1 -1 -1 -1 -1 -1 -1 -0 -0 0 0 0 0 0 0 0 0 1 1 1 0 nan
nan nan nan nan nan nan nan nan nan nan nan nan nan nan nan nan nan nan nan nan nan nan nan nan nan nan nan
Wind_Speed
38 34 32 32 29 28 29 31 30 29 29 30 32 33 33 35 36 39 39 39 37 35 34 31 29 24 23
41 41 40 35 35 35 35 35 35 33 34 35 37 38 39 40 42 41 44 41 40 38 38 32 29 27 21
51 47 45 39 38 38 39 40 40 40 39 41 41 42 44 44 45 46 45 41 42 37 36 33 30 28 22
49 48 46 46 45 45 45 43 44 41 42 40 41 43 45 44 48 45 41 36 41 38 34 34 31 29 26
50 48 47 49 47 47 47 47 46 42 42 42 42 43 40 39 41 37 36 40 38 35 33 32 31 30 27
44 47 50 49 45 48 49 47 49 46 45 47 42 41 39 38 36 35 35 35 34 35 36 31 32 32 26
33 32 33 31 31 37 39 40 41 41 40 45 42 39 39 38 36 35 33 36 33 35 37 32 33 31 26
36 33 35 35 32 34 35 37 36 37 38 43 39 41 40 38 36 35 35 34 33 33 33 32 31 28 22
37 39 38 38 37 36 36 36 38 39 40 39 44 42 42 41 35 36 33 34 33 31 31 30 28 26 21
30 32 32 33 31 28 28 31 31 37 34 28 34 32 36 39 32 26 29 30 31 30 28 26 26 27 25
31 31 30 29 27 25 23 24 28 33 36 34 37 35 32 36 38 34 30 27 27 27 28 25 28 27 26
27 28 29 28 29 26 23 22 26 31 31 34 35 35 34 35 36 36 31 27 25 29 26 28 30 24 23
23 24 24 25 26 26 24 23 24 26 28 30 32 33 35 37 36 34 30 26 22 26 28 32 29 24 23
22 24 24 25 25 23 24 24 26 26 23 25 27 29 31 32 32 32 30 20 16 21 26 30 31 24 24
24 25 24 27 27 25 24 24 26 27 27 23 24 24 26 28 30 29 27 26 22 19 23 30 31 26 27
24 25 23 25 27 26 28 25 25 26 26 25 23 23 23 27 28 29 26 23 21 21 20 26 28 25 23
23 24 23 23 26 27 27 26 28 28 26 23 23 23 25 29 27 24 23 22 21 21 19 21 24 22 20
Wind_Direction
288 292 293 293 293 290 285 283 281 280 280 278 279 279 280 280 281 281 284 283 281 278 276 279 282 275 271
283 289 288 288 286 283 284 284 282 281 279 276 276 278 281 282 283 285 285 280 281 279 274 277 277 276 267
279 279 282 285 285 283 281 283 280 279 280 280 281 282 282 283 282 283 282 290 289 279 279 273 271 272 265
280 279 279 280 282 282 282 283 284 286 286 286 287 284 284 283 283 287 289 291 286 279 277 272 268 270 260
281 282 283 285 285 287 287 288 289 288 286 284 285 284 283 285 285 285 285 286 283 282 275 269 267 267 267
278 279 284 291 288 293 292 293 292 289 289 291 291 285 281 282 287 280 282 282 281 278 274 267 259 262 262
273 282 283 282 290 296 291 290 289 293 294 289 286 284 288 285 287 282 282 283 278 275 271 264 255 260 251
276 274 275 280 277 274 281 282 282 283 281 279 282 287 287 287 286 285 284 283 277 270 264 254 252 251 241
279 283 283 282 284 284 281 279 283 281 280 282 284 287 289 287 288 285 282 283 276 265 255 253 249 236 233
279 282 280 280 281 279 281 283 282 281 284 280 284 287 289 290 287 282 281 279 271 258 246 247 230 228 228
290 290 292 294 291 288 277 269 275 277 282 285 285 282 278 281 287 288 288 282 266 251 239 231 224 227 227
297 299 301 301 301 297 288 275 270 273 277 278 277 280 280 279 280 282 283 281 267 254 241 222 224 233 230
312 311 311 308 306 305 302 294 283 275 275 277 277 278 277 278 278 282 285 282 275 251 237 228 234 227 219
307 310 309 314 317 316 311 309 297 292 286 286 284 279 275 274 275 275 278 270 277 251 237 231 233 237 223
304 302 305 311 312 315 310 304 299 300 299 290 289 287 279 272 270 270 269 272 262 252 235 229 234 238 225
313 311 307 313 313 309 306 305 302 302 302 301 298 291 282 272 265 265 266 263 253 244 237 232 234 231 228
311 310 306 306 307 309 306 307 305 305 304 304 301 291 280 273 272 266 262 256 247 237 239 231 230 227 225
Height
1536 1537 1537 1536 1535 1533 1531 1529 1528 1527 1525 1523 1522 1520 1518 1517 1514 1511 1509 1506 1503 1501 1499 1498 1496 1494 1493
1530 1528 1526 1528 1527 1525 1524 1522 1519 1519 1517 1515 1513 1511 1510 1508 1505 1503 1500 1497 1495 1492 1490 1490 1489 1488 1487
1519 1521 1519 1518 1517 1516 1515 1513 1510 1509 1507 1505 1504 1502 1499 1497 1494 1491 1489 1487 1486 1484 1482 1481 1480 1479 1478
1510 1509 1510 1509 1508 1506 1502 1502 1499 1499 1497 1495 1494 1491 1489 1486 1483 1481 1480 1477 1475 1474 1473 1471 1471 1471 1470
1502 1500 1498 1496 1498 1496 1493 1491 1487 1488 1485 1485 1484 1480 1478 1476 1472 1471 1470 1468 1466 1464 1464 1463 1463 1462 1463
1494 1492 1488 1488 1484 1486 1485 1481 1474 1475 1472 1471 1473 1469 1466 1464 1464 1462 1460 1459 1457 1456 1455 1454 1454 1455 1456
1485 1485 1482 1479 1479 1475 1473 1473 1468 1465 1462 1460 1458 1456 1456 1455 1454 1453 1450 1449 1447 1446 1446 1446 1446 1447 1449
1478 1475 1473 1472 1469 1469 1467 1461 1459 1457 1453 1450 1449 1446 1447 1445 1445 1443 1441 1439 1439 1438 1438 1439 1440 1442 1444
1467 1467 1464 1464 1461 1458 1456 1456 1451 1446 1447 1444 1439 1438 1437 1434 1434 1434 1433 1431 1430 1429 1430 1430 1433 1435 1437
1457 1457 1456 1455 1452 1450 1448 1446 1444 1438 1438 1437 1433 1433 1428 1422 1424 1427 1426 1425 1423 1422 1423 1424 1426 1428 1430
1449 1447 1445 1443 1442 1442 1440 1439 1436 1432 1431 1431 1426 1424 1422 1418 1415 1417 1417 1417 1416 1417 1417 1419 1421 1422 1425
1441 1439 1436 1435 1432 1431 1431 1429 1428 1425 1424 1421 1419 1417 1416 1411 1409 1406 1408 1407 1409 1410 1412 1415 1415 1419 1420
1435 1433 1431 1429 1426 1423 1422 1420 1417 1416 1415 1414 1410 1409 1408 1405 1405 1401 1400 1400 1400 1404 1406 1408 1411 1413 1416
1430 1428 1425 1423 1420 1417 1414 1412 1408 1407 1408 1406 1403 1401 1399 1397 1398 1397 1396 1397 1396 1398 1401 1403 1406 1408 1410
1426 1422 1419 1417 1414 1412 1409 1406 1403 1400 1398 1399 1396 1394 1393 1391 1390 1390 1391 1391 1391 1393 1395 1398 1401 1403 1406
1421 1417 1414 1412 1408 1406 1403 1400 1396 1394 1392 1391 1389 1387 1385 1383 1385 1384 1385 1386 1387 1388 1390 1391 1395 1399 1401
1416 1412 1409 1407 1404 1401 1398 1395 1391 1389 1386 1385 1384 1383 1379 1376 1377 1378 1378 1380 1383 1385 1387 1387 1390 1394 1397